Hourly Data Report for June 11, 2021

VINELAND STATION RCS
ONTARIO
Current Station Operator: ECCC - MSC

43°11'00.000" N
79°24'00.000" W
79.20 m
6139148
71171
XVN

Download Data

Hourly Data (June 2021)
Hourly Data Report for June 11, 2021
TIME
LST
Temp Definition
°C
Dew Point Definition
°C
Rel Hum Definition
%
Precip. Amount Definition
mm

Wind Dir Definition
10's deg

Wind Spd Definition
km/h
Visibility Definition
km
Stn Press Definition
kPa
Hmdx Definition


Wind Chill Definition


Weather Definition


00:00 14.3 11.4 83 0.0 19 1   100.43     LegendNANA
01:00 13.8 11.9 88 0.0 26 2   100.41     LegendNANA
02:00 14.7 11.6 82 0.0 13 3   100.36     LegendNANA
03:00 14.9 11.4 79 0.0 5 9   100.34     LegendNANA
04:00 14.0 10.8 81 0.0 8 5   100.34     LegendNANA
05:00 13.4 11.2 86 0.0 7 3   100.32     LegendNANA
06:00 14.1 11.9 87 0.0 3 7   100.32     LegendNANA
07:00 15.6 12.0 79 0.0 9 6   100.32     LegendNANA
08:00 16.7 12.1 74 0.0 5 6   100.32     LegendNANA
09:00 17.0 12.5 75 0.0 3 10   100.30     LegendNANA
10:00 17.6 13.7 78 0.0 5 10   100.30     LegendNANA
11:00 17.6 14.0 79 0.0 36 8   100.31     LegendNANA
12:00 17.3 13.8 80 0.0 3 11   100.31     LegendNANA
13:00 17.5 13.5 77 0.0 3 11   100.23     LegendNANA
14:00 17.2 12.7 75 0.0 3 11   100.19     LegendNANA
15:00 17.0 12.4 74 0.0 1 10   100.17     LegendNANA
16:00 17.7 12.8 73 0.0 35 10   100.11     LegendNANA
17:00 17.5 12.2 71 0.0 3 7   100.04     LegendNANA
18:00 16.9 12.2 74 0.0 4 9   100.04     LegendNANA
19:00 16.4 12.0 76 0.0 8 9   100.08     LegendNANA
20:00 15.5 12.1 80 0.0 6 13   100.05     LegendNANA
21:00 15.4 11.8 79 0.0 6 12   100.13     LegendNANA
22:00 14.4 12.6 89 0.0 5 10   100.19     LegendNANA
23:00 14.1 12.6 91 0.0 5 8   100.21     LegendNANA

Notes on Data Quality.

Legend

  • E = Estimated
  • M = Missing
  • NA = Not Available*
  • [empty] = Indicates an unobserved value
Date modified: